User: anonymous   Login
Location: Poprad
(49.0500°N, 20.3000°E)
Time: 06:00:32
(UTC+02:00)
Language:

CAS-6 - Orbit

View from above orbital plane
View from above orbital plane
View from above satellite
View from above satellite

Ground track
Ground track

The orbit data is extracted from the following two-line orbital elements,

1 44881U 19093C   24106.85812474  .00001947  00000-0  24287-3 0  9996
2 44881  97.8300 184.8484 0014967 161.7166 198.4589 14.83471874233803
Epoch (UTC): 15 April 2024 20:35:41
Eccentricity: 0.0014967
inclination: 97.8300°
perigee height: 608 km
apogee height: 629 km
right ascension of ascending node: 184.8484°
argument of perigee: 161.7166°
revolutions per day: 14.83471874
mean anomaly at epoch: 198.4589°
orbit number at epoch: 23380

The dashed part of the orbit path shows where the satellite is in the earth's shadow,  

DLR